Location: Grange Rosano
(44.4500°N, 6.9667°E)
Time: 19:04:01
(UTC+00:00)

BREEZE-M DEB (TANK) - Pass Details

Date: 26 May 2022
Orbit: 301 x 13682 km, 49.6° (Epoch: 30 June)

Event Time Altitude Azimuth Distance (km) Brightness Sun altitude
Exits shadow 02:50:19 12° 233° (SW) 2,336 5.3 -10.0°
Maximum altitude 02:54:35 64° 154° (SSE) 510 2.6 -9.4°
Drops below altitude 10° 02:56:55 10° 70° (ENE) 1,278 6.0 -9.1°
Sets 02:58:22 0° 67° (ENE) 2,013 7.3 -8.9°
